Location: Crescent
(42.8242°N, 73.7329°W)
Time: 20:40:12
(UTC+00:00)

Vanguard 2 Rocket - Pass Details

Date: 16 February 2026
Orbit: 553 x 3286 km, 32.9° (Epoch: 9 March)

Event Time Altitude Azimuth Distance (km) Brightness Sun altitude
Rises 17:35:41 0° 233° (SW) 7,246 12.0 34.7°
Reaches altitude 10° 17:41:03 10° 228° (SW) 6,129 11.9 34.5°
Maximum altitude 17:58:01 45° 164° (SSE) 3,188 11.1 33.9°
Drops below altitude 10° 18:09:17 10° 97° (E) 4,171 10.3 33.3°
Sets 18:12:10 0° 91° (E) 4,842 10.5 33.2°
